Location: Ferma
(41.9500°N, 44.5167°E)
Time: 18:16:26
(UTC+00:00)

SKYMED 2 - Pass Details

Date: 24 October 2021
Orbit: 621 x 623 km, 97.9° (Epoch: 02 December)

Event Time Altitude Azimuth Distance (km) Brightness Sun altitude
Rises 15:25:00 0° 9° (N) 2,913 6.9 -15.2°
Reaches altitude 10° 15:27:12 10° 6° (N) 2,002 6.1 -15.6°
Maximum altitude 15:31:30 62° 286° (WNW) 706 4.1 -16.4°
Drops below altitude 10° 15:35:46 10° 206° (SSW) 1,985 6.5 -17.2°
Sets 15:37:57 0° 203° (SSW) 2,887 7.3 -17.6°
